AirNav   Duncan Aviation - Near you to keep you flying
 
 1254 users online  

F62 Hayfork Airport
Hayfork, California, USA

GOING TO HAYFORK?


FAA INFORMATION EFFECTIVE 16 JUNE 2022

Location

FAA Identifier: F62
Lat/Long: 40-32-49.2000N 123-10-46.7000W
40-32.820000N 123-10.778333W
40.5470000,-123.1796389
(estimated)
Elevation: 2333.8 ft. / 711.3 m (surveyed)
Variation: 17E (1985)
From city: 1 mile S of HAYFORK, CA
Time zone: UTC -7 (UTC -8 during Standard Time)
Zip code: 96041

Airport Operations

Airport use: Open to the public
Activation date: 07/1970
Control tower: no
ARTCC: OAKLAND CENTER
FSS: RANCHO MURIETA FLIGHT SERVICE STATION
NOTAMs facility: RIU (NOTAM-D service available)
Attendance: UNATNDD
Wind indicator: lighted
Segmented circle: yes
Lights: ACTVT MIRL RWY 07/25 - CTAF. MIRL RWY 07/25 OTS INDEF
Beacon: white-green (lighted land airport)
DUSK TO DAWN. OTS INDEF

Airport Communications

CTAF/UNICOM: 122.8
WX AWOS-3 at O54 (17 nm NE): 120.850 (530-623-3810)

Airport Services

Parking: tiedowns
Airframe service: MINOR
Powerplant service: MINOR
Bottled oxygen: NONE
Bulk oxygen: NONE

Runway Information

Runway 7/25

Dimensions: 4100 x 60 ft. / 1250 x 18 m
Surface: asphalt, in fair condition
Weight bearing capacity: 
Single wheel: 12.5
Runway edge lights: medium intensity
RUNWAY 7  RUNWAY 25
Latitude: 40-32.806962N40-32.831865N
Longitude: 123-11.220862W123-10.336328W
Elevation: 2315.6 ft.2333.8 ft.
Traffic pattern: leftright
Runway heading: 070 magnetic, 087 true250 magnetic, 267 true
Markings: basic, in fair conditionbasic, in fair condition
Runway end identifier lights: nono
Touchdown point: yes, no lightsyes, no lights
Obstructions: 13 ft. tree, 330 ft. from runway, 65 ft. right of centerline, 10:1 slope to clear43 ft. tree, 850 ft. from runway, 15:1 slope to clear

Airport Ownership and Management from official FAA records

Ownership: Publicly-owned
Owner: COUNTY OF TRINITY
PO BOX 2490
WEAVERVILLE, CA 96093-0476
Phone 530-623-1365
Manager: KIMIKO TAGUCHI
PO BOX 2490
WEAVERVILLE, CA 96093-0476
Phone 530-623-1365
DIRECTOR OF TRANSPORTATION; OFFICE IN WEAVERVILLE.

Airport Operational Statistics

Aircraft based on the field: 3
Single engine airplanes: 3
    
Aircraft operations: avg 34/day *
96% transient general aviation
4% local general aviation
* for 12-month period ending 31 December 2019

Additional Remarks

HIGH TERRAIN ALL QUADRANTS.
NOISE ABATEMENT PROCEDURES IN EFFECT N, NE & S OF ARPT.
INTERMITTENTLY CLOSED WINTERS DUE TO SNOW. CTC COUNTY TRANSPORTATION OFFICE FOR INFO 530-623-1365.
FOR CD CTC OAKLAND ARTCC AT 510-745-3380.

Instrument Procedures

There are no published instrument procedures at F62.

Some nearby airports with instrument procedures:

KRDD - Redding Municipal Airport (40 nm E)
KFOT - Rohnerville Airport (43 nm W)
KEKA - Murray Field Airport (45 nm W)
KRBL - Red Bluff Municipal Airport (49 nm SE)
KACV - California Redwood Coast-Humboldt County Airport (49 nm NW)
 
Loc | Ops | Rwys | IFR | FBO | Links
Com | Nav | Svcs | Stats | Notes
Area around F62 (Hayfork Airport)
 
Road maps at: MapQuest Bing Google
 
Aerial photo
WARNING: Photo may not be current or correct
Aerial photo of F62 (Hayfork Airport)
Do you have a better or more recent aerial photo of Hayfork Airport that you would like to share? If so, please send us your photo.

 
Sectional chart

 
Airport distance calculator
Flying to Hayfork Airport? Find the distance to fly.

From to F62

Sunrise and sunset
Times for 04-Jul-2022
 Local
(UTC-7)
 Zulu
(UTC)
Morning civil twilight05:1512:15
Sunrise05:4812:48
Sunset20:4603:46
Evening civil twilight21:1904:19

Current date and time
Zulu (UTC)  04-Jul-2022 22:19:10
Local (UTC-7)  04-Jul-2022 15:19:10
 
METAR
KRDD 
40nm E 
042153Z 14008KT 10SM BKN075 OVC110 28/07 A2990 RMK AO2 SLP120 T02780067
KFOT 
49nm W 
042115Z AUTO 00000KT 4SM BKN003 17/16 A2994 RMK AO1
KRBL 
49nm SE 
042154Z AUTO 16009G14KT 10SM FEW090 BKN110 27/08 A2991 RMK AO2 SLP126 T02670078
KACV 
49nm NW 
042153Z AUTO 31010KT 10SM BKN009 OVC015 18/14 A2995 RMK AO2 SLP146 T01780144
TAF
KRDD 
40nm E 
041720Z 0418/0518 17005KT P6SM SKC FM042100 20006KT P6SM BKN100
KRBL 
49nm SE 
041720Z 0418/0518 17008KT P6SM BKN120
KACV 
49nm NW 
041953Z 0420/0518 30007KT P6SM VCSH SCT010 OVC045 TEMPO 0420/0423 5SM -SHRA BR BKN009 FM050000 VRB04KT P6SM VCSH SCT008 OVC025 FM050400 VRB03KT 4SM BR BKN006 OVC030 TEMPO 0510/0514 2SM BR OVC003 FM051600 17004KT 6SM BR VCSH SCT008 OVC030
NOTAMs
Click for the latest NOTAMs
NOTAMs are issued by the DoD/FAA and will open in a separate window not controlled by AirNav.

 

 
 

Would you like to see your business listed on this page?

 If your business provides an interesting product or service to pilots, flight crews, aircraft, or users of the Hayfork Airport, you should consider listing it here.  To start the listing process, click on the button below
 
Add a business
 

Other Pages about Hayfork Airport

Update a link
 
Copyright © AirNav, LLC. All rights reserved. Privacy Policy  Contact